Weather History for KDYT - November, 2012

Change the Weather History Date:

Friday, November 16, 2012

  Actual Average Record
Temperature  
Mean Temperature 29 °F -  
Max Temperature 37 °F 39 °F 65 °F (1953)
Min Temperature 21 °F 23 °F 0 °F (1959)
Degree Days  
Heating Degree Days 36    
Moisture  
Dew Point 23 °F    
Average Humidity 71    
Maximum Humidity 81    
Minimum Humidity 55    
Precipitation  
Precipitation 0.00 in - - ()
Sea Level Pressure  
Sea Level Pressure 30.45 in    
Wind  
Wind Speed 6 mph (East)    
Max Wind Speed 12 mph    
Max Gust Speed -    
Visibility 10 miles    
Events      
Averages and records for this station are not official NWS values.
T = Trace of Precipitation, MM = Missing Value Source: NWS Daily Summary

Daily Weather History Graph

Daily Weather History Graph

Search for Another Location

Airport or City:

Trip Planner

Search our weather history database for the weather conditions in past years. The results will help you decide how hot, cold, wet, or windy it might be!

Date:

Astronomy

Nov. 16, 2012 Rise Set
Actual Time 7:12 AM CST 4:32 PM CST
Civil Twilight 6:39 AM CST 5:05 PM CST
Nautical Twilight 6:02 AM CST 5:42 PM CST
Astronomical Twilight 5:27 AM CST 6:18 PM CST
Moon 10:10 AM CST (11/16) 7:30 PM CST (11/16)
Length of Visible Light 10h 26m
Length of Day
9h 19m
Waxing Crescent, 12% of the Moon is Illuminated
Nov 16
Waxing Crescent
Nov 20
First Quarter
Nov 28
Full
Dec 6
Last Quarter
Dec 13
New

Hourly Weather History & Observations

Time (CST) Temp. Windchill Dew Point Humidity Pressure Visibility Wind Dir Wind Speed Gust Speed Precip Events Conditions
12:14 AM 30.2 °F 21.9 °F 15.8 °F 55% 30.49 in 10.0 mi NNE 9.2 mph - N/A   Clear
12:33 AM 30.2 °F 21.3 °F 17.6 °F 60% 30.49 in 10.0 mi North 10.4 mph - N/A   Clear
12:54 AM 30.2 °F 20.8 °F 17.6 °F 60% 30.50 in 10.0 mi North 11.5 mph - N/A   Clear
1:13 AM 30.2 °F 22.6 °F 17.6 °F 60% 30.50 in 10.0 mi North 8.1 mph - N/A   Clear
1:33 AM 30.2 °F 26.7 °F 17.6 °F 60% 30.49 in 10.0 mi NNE 3.5 mph - N/A   Clear
1:54 AM 30.2 °F 26.7 °F 17.6 °F 60% 30.49 in 10.0 mi East 3.5 mph - N/A   Clear
2:13 AM 30.2 °F 25.4 °F 17.6 °F 60% 30.49 in 10.0 mi East 4.6 mph - N/A   Clear
2:33 AM 30.2 °F 26.7 °F 19.4 °F 64% 30.49 in 10.0 mi East 3.5 mph - N/A   Clear
2:54 AM 26.6 °F 21.2 °F 17.6 °F 69% 30.49 in 10.0 mi SW 4.6 mph - N/A   Clear
3:13 AM 24.8 °F 20.5 °F 17.6 °F 74% 30.49 in 10.0 mi South 3.5 mph - N/A   Clear
3:34 AM 24.8 °F 20.5 °F 17.6 °F 74% 30.49 in 10.0 mi SSW 3.5 mph - N/A   Clear
3:54 AM 24.8 °F 19.1 °F 17.6 °F 74% 30.49 in 10.0 mi WSW 4.6 mph - N/A   Clear
4:13 AM 24.8 °F 20.5 °F 17.6 °F 74% 30.49 in 10.0 mi West 3.5 mph - N/A   Clear
4:34 AM 24.8 °F 20.5 °F 19.4 °F 80% 30.49 in 10.0 mi SSW 3.5 mph - N/A   Clear
4:54 AM 23.0 °F 18.4 °F 17.6 °F 80% 30.49 in 10.0 mi SSW 3.5 mph - N/A   Clear
5:13 AM 23.0 °F 18.4 °F 17.6 °F 80% 30.49 in 10.0 mi SSW 3.5 mph - N/A   Clear
5:34 AM 21.2 °F 13.6 °F 15.8 °F 80% 30.49 in 10.0 mi SW 5.8 mph - N/A   Clear
5:54 AM 21.2 °F 16.4 °F 15.8 °F 80% 30.50 in 10.0 mi SSW 3.5 mph - N/A   Clear
6:13 AM 21.2 °F 16.4 °F 15.8 °F 80% 30.50 in 10.0 mi SSW 3.5 mph - N/A   Clear
6:34 AM 21.2 °F 16.4 °F 15.8 °F 80% 30.51 in 10.0 mi WSW 3.5 mph - N/A   Clear
6:53 AM 21.2 °F 16.4 °F 15.8 °F 80% 30.50 in 10.0 mi SSW 3.5 mph - N/A   Clear
7:13 AM 21.2 °F 16.4 °F 15.8 °F 80% 30.50 in 10.0 mi SW 3.5 mph - N/A   Clear
7:34 AM 21.2 °F 14.9 °F 15.8 °F 80% 30.51 in 10.0 mi SSW 4.6 mph - N/A   Clear
7:53 AM 21.2 °F 16.4 °F 15.8 °F 80% 30.51 in 10.0 mi SSW 3.5 mph - N/A   Clear
8:13 AM 23.0 °F 18.4 °F 17.6 °F 80% 30.51 in 10.0 mi SSW 3.5 mph - N/A   Clear
8:34 AM 23.0 °F 17.0 °F 17.6 °F 80% 30.51 in 10.0 mi South 4.6 mph - N/A   Clear
8:53 AM 24.8 °F 20.5 °F 17.6 °F 74% 30.51 in 10.0 mi South 3.5 mph - N/A   Clear
9:14 AM 26.6 °F - 17.6 °F 69% 30.51 in 10.0 mi Calm Calm - N/A   Clear
9:33 AM 28.4 °F - 17.6 °F 64% 30.52 in 10.0 mi Calm Calm - N/A   Clear
9:53 AM 30.2 °F - 19.4 °F 64% 30.52 in 10.0 mi Calm Calm - N/A   Clear
10:14 AM 30.2 °F - 21.2 °F 69% 30.51 in 10.0 mi Calm Calm - N/A   Clear
10:33 AM 32.0 °F - 21.2 °F 64% 30.52 in 10.0 mi Calm Calm - N/A   Clear
10:54 AM 33.8 °F 30.8 °F 21.2 °F 60% 30.51 in 10.0 mi ENE 3.5 mph - N/A   Clear
11:14 AM 33.8 °F - 23.0 °F 65% 30.50 in 10.0 mi Calm Calm - N/A   Clear
11:33 AM 33.8 °F 30.8 °F 23.0 °F 65% 30.50 in 10.0 mi NNE 3.5 mph - N/A   Clear
11:53 AM 35.6 °F 32.8 °F 23.0 °F 60% 30.50 in 10.0 mi North 3.5 mph - N/A   Clear
12:13 PM 35.6 °F 31.7 °F 24.8 °F 65% 30.49 in 10.0 mi North 4.6 mph - N/A   Clear
12:34 PM 35.6 °F 31.7 °F 24.8 °F 65% 30.49 in 10.0 mi North 4.6 mph - N/A   Clear
12:53 PM 35.6 °F 30.7 °F 24.8 °F 65% 30.48 in 10.0 mi NNE 5.8 mph - N/A   Clear
1:13 PM 37.4 °F 32.1 °F 24.8 °F 60% 30.47 in 10.0 mi NE 6.9 mph - N/A   Clear
1:34 PM 37.4 °F 33.8 °F 24.8 °F 60% 30.47 in 10.0 mi NE 4.6 mph - N/A   Clear
1:53 PM 37.4 °F 32.8 °F 26.6 °F 65% 30.46 in 10.0 mi ENE 5.8 mph - N/A   Clear
2:13 PM 37.4 °F 31.4 °F 26.6 °F 65% 30.44 in 10.0 mi East 8.1 mph - N/A   Clear
2:34 PM 37.4 °F 31.4 °F 26.6 °F 65% 30.43 in 10.0 mi ENE 8.1 mph - N/A   Clear
2:53 PM 37.4 °F 31.4 °F 26.6 °F 65% 30.42 in 10.0 mi East 8.1 mph - N/A   Clear
3:13 PM 37.4 °F 29.8 °F 28.4 °F 70% 30.40 in 10.0 mi East 11.5 mph - N/A   Clear
3:34 PM 37.4 °F 30.8 °F 28.4 °F 70% 30.41 in 10.0 mi East 9.2 mph - N/A   Clear
3:53 PM 37.4 °F 30.3 °F 28.4 °F 70% 30.41 in 10.0 mi ENE 10.4 mph - N/A   Clear
4:14 PM 37.4 °F 30.3 °F 28.4 °F 70% 30.40 in 10.0 mi ENE 10.4 mph - N/A   Clear
4:34 PM 37.4 °F 30.8 °F 28.4 °F 70% 30.40 in 10.0 mi ENE 9.2 mph - N/A   Clear
4:53 PM 37.4 °F 30.3 °F 28.4 °F 70% 30.40 in 10.0 mi ENE 10.4 mph - N/A   Clear
5:14 PM 37.4 °F 30.3 °F 30.2 °F 75% 30.39 in 10.0 mi ENE 10.4 mph - N/A   Clear
5:34 PM 37.4 °F 29.8 °F 30.2 °F 75% 30.39 in 10.0 mi ENE 11.5 mph - N/A   Clear
5:53 PM 37.4 °F 29.8 °F 30.2 °F 75% 30.38 in 10.0 mi ENE 11.5 mph - N/A   Clear
6:14 PM 37.4 °F 30.3 °F 30.2 °F 75% 30.38 in 10.0 mi East 10.4 mph - N/A   Clear
6:34 PM 37.4 °F 32.8 °F 30.2 °F 75% 30.38 in 10.0 mi ESE 5.8 mph - N/A   Clear
6:53 PM 35.6 °F 29.2 °F 30.2 °F 81% 30.36 in 10.0 mi ESE 8.1 mph - N/A   Clear
7:14 PM 35.6 °F 30.7 °F 28.4 °F 75% 30.37 in 10.0 mi ESE 5.8 mph - N/A   Clear
7:53 PM 33.8 °F 30.8 °F 26.6 °F 75% 30.36 in 10.0 mi SE 3.5 mph - N/A   Clear
8:14 PM 33.8 °F - 28.4 °F 81% 30.36 in 10.0 mi Calm Calm - N/A   Clear
8:33 PM 33.8 °F - 26.6 °F 75% 30.36 in 10.0 mi Calm Calm - N/A   Clear
8:53 PM 33.8 °F - 26.6 °F 75% 30.36 in 10.0 mi Calm Calm - N/A   Clear
9:14 PM 33.8 °F - 28.4 °F 81% 30.36 in 10.0 mi Calm Calm - N/A   Clear
9:53 PM 35.6 °F 31.7 °F 26.6 °F 70% 30.35 in 10.0 mi SE 4.6 mph - N/A   Clear
10:13 PM 35.6 °F 32.8 °F 28.4 °F 75% 30.35 in 10.0 mi ESE 3.5 mph - N/A   Clear
10:34 PM 33.8 °F 30.8 °F 28.4 °F 81% 30.35 in 10.0 mi ESE 3.5 mph - N/A   Clear
10:54 PM 33.8 °F 30.8 °F 24.8 °F 70% 30.35 in 10.0 mi SE 3.5 mph - N/A   Scattered Clouds
11:13 PM 33.8 °F 29.6 °F 24.8 °F 70% 30.35 in 10.0 mi ESE 4.6 mph - N/A   Scattered Clouds
11:34 PM 33.8 °F 29.6 °F 24.8 °F 70% 30.35 in 10.0 mi ESE 4.6 mph - N/A   Scattered Clouds
11:53 PM 33.8 °F 29.6 °F 24.8 °F 70% 30.35 in 10.0 mi SE 4.6 mph - N/A   Scattered Clouds